Regional Weather Roundup
Issued by NWS

Home | Current Version | Previous Version | Text Only | Print | Product List | Glossary Off
Versions: 1 2 3 4 5 6 7 8 9 10 11 12 13 14 15 16 17 18 19 20 21 22 23 24 25 26 27

000
ASUS45 KCYS 191110
RWRWY

WYOMING REGIONAL WEATHER ROUNDUP
NATIONAL WEATHER SERVICE CHEYENNE WY
500 AM MDT THU APR 19 2018

NOTE:  "FAIR" INDICATES FEW OR NO CLOUDS BELOW 12,000 FEET
WITH NO SIGNIFICANT WEATHER AND/OR OBSTRUCTIONS TO VISIBILITY.

WYZ001-191200-
YELLOWSTONE NATIONAL PARK

CITY           SKY/WX    TMP DP  RH WIND       PRES   REMARKS
LK YELLOWSTONE   N/A     19  13  77 CALM      30.11S
W YELLOWSTONE  NOT AVBL

$$
WYZ002>013-054>058-071-098>099-191200-
NORTHERN WYOMING

CITY           SKY/WX    TMP DP  RH WIND       PRES   REMARKS
JACKSON        MOCLDY    29  21  72 CALM      30.07S
CODY           FAIR      33  24  69 CALM      30.14R
GREYBULL       FAIR      34  28  79 SE6       30.13R WCI  29
WORLAND        FAIR      32  27  81 SW6       30.13R WCI  26
SHERIDAN       FAIR      37  25  61 S10       30.17S WCI  30
BUFFALO        FAIR      33  21  61 SE6       30.21R WCI  28
GILLETTE       FAIR      36  26  67 S16       30.23S WCI  26
HULETT         FAIR      34  27  75 SW3       30.28R
NEWCASTLE      FAIR      36  28  75 E13       30.29F WCI  27

$$
WYZ014>020-022>026-101>103-191200-
CENTRAL WYOMING

CITY           SKY/WX    TMP DP  RH WIND       PRES   REMARKS
BIG PINEY      FAIR      26  11  52 NW5       30.09S WCI  20
PINEDALE       FAIR      28  19  69 W6        30.09S WCI  22
DUBOIS         FAIR      28  18  64 CALM      30.11S
LANDER         FAIR      29  22  75 CALM      30.11R
RIVERTON       FAIR      31  22  69 NE7       30.11S WCI  24
CASPER         FAIR      34  21  59 E10       30.16R WCI  26
DOUGLAS        FAIR      32  24  72 SE14      30.23F WCI  22

$$
WYZ021-027>030-104>119-191200-
SOUTHERN WYOMING

CITY           SKY/WX    TMP DP  RH WIND       PRES   REMARKS
EVANSTON       FAIR      34  11  38 E10       30.01F WCI  26
KEMMERER       FAIR      32  10  40 N13       30.04S WCI  22
FORT BRIDGER   FAIR      30   7  37 NW5       30.06S WCI  25
ROCK SPRINGS   FAIR      32  11  41 E8        30.06S WCI  25
DIXON          FAIR      29  20  70 CALM      30.13R
RAWLINS        FAIR      29  17  61 NE13      30.13R WCI  19
SARATOGA       FAIR      34  10  37 SE9       30.12R WCI  26
LARAMIE        FAIR      30  14  51 SE21G28   30.18S WCI  17
CHEYENNE       FAIR      28  17  63 SE8       30.26S WCI  20
TORRINGTON     FAIR      27  24  89 E7        30.29R WCI  19
PINE BLUFFS    FAIR      21  16  79 MISG      30.30R

$$




USA.gov is the U.S. government's official web portal to all federal, state and local government web resources and services.